• Join FlightAware (Why Join?)
  • Login
  • US Flag GB Flag 
14:39 EDT


 

Airport Tracker/Info


-or-


 

Live Flight TrackerFlight Track Log ✈ SWA167 ✈ 10-May-2013 ✈ KDAL - KHRL

Flight Track Log - Related Links

Times and Time Zones

All times are in EDT time to prevent confusion due to time zone crossing. See the SWA167 flight status page for this flight to view local times or setup timezone preferences in your user account.

Time Position Orientation Groundspeed Altitude Reporting Facility
EDT Latitude Longitude Course Direction KTS MPH feet Rate Location/Type
17:58 32.8667 -96.8667 193° South 143 165 1,700  Level Dallas / Fort Worth TRACON
17:59 32.8833 -96.9000 301° West 211 243 2,900 2,460 Climbing Dallas / Fort Worth TRACON
18:00 32.9333 -96.9500 320° Northwest 211 243 5,900 2,760 Climbing Dallas / Fort Worth TRACON
18:01 32.9000 -97.0000 232° Southwest 294 338 8,500 2,880 Climbing Dallas / Fort Worth TRACON
18:03 32.6983 -97.0519 192° South 343 395 16,000 3,000 Climbing Houston Center
18:04 32.4579 -97.1357 193° South  Level FlightAware Approximate
18:04 32.6136 -97.0236 164° South 361 415 18,100  Level Fort Worth Center
18:05 32.5072 -97.0217 179° South 381 438 21,700 3,000 Climbing Fort Worth Center
18:06 32.4050 -97.0492 193° South 375 432 24,100 2,340 Climbing Fort Worth Center
18:07 32.2986 -97.0817 194° South 392 451 26,500 2,100 Climbing Fort Worth Center
18:08 32.2025 -97.1114 195° South 397 457 28,300 1,740 Climbing Fort Worth Center
18:09 32.0814 -97.1486 195° South 397 457 30,000 1,860 Climbing Fort Worth Center
18:10 31.9689 -97.1783 193° South 406 467 32,100 2,100 Climbing Fort Worth Center
18:11 31.8603 -97.2103 194° South 406 467 34,300 2,160 Climbing Fort Worth Center
18:12 31.7581 -97.2447 196° South 401 461 36,400 1,560 Climbing Fort Worth Center
18:13 31.6536 -97.2767 195° South 389 448 37,500 1,080 Climbing Fort Worth Center
18:14 31.5897 -97.3031 199° South 384 442 38,200 1,140 Climbing Houston Center
18:15 31.4900 -97.3508 202° Southwest 384 442 39,500 840 Climbing Houston Center
18:16 31.3922 -97.3978 202° Southwest 379 436 40,000 240 Climbing Houston Center
18:17 31.2936 -97.4436 202° Southwest 377 434 40,000  Level Houston Center
18:18 31.1950 -97.4897 202° Southwest 379 436 40,000  Level Houston Center
18:19 31.0647 -97.5086 187° South 410 472 40,000  Level Houston Center
18:20 30.9494 -97.5117 181° South 415 478 40,000  Level Houston Center
18:21 30.8361 -97.5158 182° South 410 472 40,000  Level Houston Center
18:22 30.7228 -97.5192 181° South 406 467 40,000  Level Houston Center
18:23 30.6089 -97.5222 181° South 407 468 40,000  Level Houston Center
18:24 30.4936 -97.5256 181° South 410 472 40,000  Level Houston Center
18:25 30.3586 -97.5306 182° South 413 475 40,000  Level Houston Center
18:26 30.2417 -97.5336 181° South 415 478 40,000  Level Houston Center
18:27 30.1258 -97.5383 182° South 412 474 40,000  Level Houston Center
18:28 30.0094 -97.5425 182° South 406 467 40,000  Level Houston Center
18:29 29.8822 -97.5461 181° South 407 468 40,000  Level Houston Center
18:30 29.7833 -97.5494 182° South 406 467 40,000  Level Houston Center
18:31 29.6717 -97.5525 181° South 404 465 40,000  Level Houston Center
18:32 29.5408 -97.5567 182° South 394 453 40,000  Level Houston Center
18:33 29.4317 -97.5600 182° South 393 452 40,000  Level Houston Center
18:34 29.3219 -97.5631 181° South 397 457 40,000  Level Houston Center
18:35 29.2119 -97.5675 182° South 397 457 40,000  Level Houston Center
18:37 29.1019 -97.5717 182° South 396 456 40,000  Level Houston Center
18:38 28.9700 -97.5750 181° South 397 457 40,000  Level Houston Center
18:39 28.8581 -97.5781 181° South 402 463 40,000 -600 Level Houston Center
18:40 28.7481 -97.5828 182° South 397 457 38,800 -1,200 Descending Houston Center
18:41 28.6350 -97.5864 182° South 404 465 37,600 -1,260 Descending Houston Center
18:42 28.5200 -97.5914 182° South 412 474 36,300 -1,260 Descending Houston Center
18:43 28.4008 -97.5933 181° South 423 487 35,100 -1,380 Descending Houston Center
18:44 28.2597 -97.5978 182° South 424 488 33,500 -1,380 Descending Houston Center
18:45 28.1442 -97.6028 182° South 417 480 32,300 -1,260 Descending Houston Center
18:46 28.0261 -97.6056 181° South 422 486 31,000 -1,980 Descending Houston Center
18:47 27.9028 -97.6072 181° South 422 486 28,300 -2,400 Descending Houston Center
18:48 27.7906 -97.6111 182° South 407 468 26,100 -2,280 Descending Houston Center
18:49 27.6833 -97.6158 182° South 389 448 23,700 -2,280 Descending Houston Center
18:50 27.5789 -97.6178 181° South 378 435 21,400 -2,280 Descending Houston Center
18:51 27.4786 -97.6219 182° South 364 419 19,000 -2,400 Descending Houston Center
18:52 27.3581 -97.6244 181° South 360 414 16,500 -1,500 Descending Houston Center
18:53 27.2647 -97.6289 182° South 344 396 16,000 -300 Descending Houston Center
18:54 27.1794 -97.6306 181° South 327 376 16,000  Level Houston Center
18:54 27.1353 -97.6319 182° South 328 377 16,000 -180 Level Houston Center
18:55 27.0767 -97.6339 182° South 336 387 15,800 -840 Descending Houston Center
18:55 27.0411 -97.6353 182° South 331 381 15,200 -1,380 Descending Houston Center
18:56 26.9842 -97.6367 181° South 305 351 14,400 -1,200 Descending Houston Center
18:56 26.9569 -97.6372 181° South 292 336 14,000 -1,500 Descending Houston Center
18:57 26.9033 -97.6406 183° South 290 334 12,900 -1,740 Descending Houston Center
18:58 26.8692 -97.6419 182° South 287 330 12,100 -1,860 Descending Houston Center
18:58 26.8214 -97.6433 181° South 293 337 11,000 -1,800 Descending Houston Center
18:59 26.7894 -97.6433 180° South 293 337 10,300 -1,860 Descending Houston Center
18:59 26.7339 -97.6467 183° South 292 336 9,100 -1,920 Descending Houston Center
19:00 26.7014 -97.6481 182° South 292 336 8,400 -1,860 Descending Houston Center
19:00 26.6544 -97.6478 180° South 285 328 7,200 -1,920 Descending Houston Center
19:01 26.6217 -97.6494 183° South 289 333 6,500 -1,680 Descending Houston Center
19:01 26.5664 -97.6511 182° South 293 337 5,500 -1,620 Descending Houston Center
19:02 26.5400 -97.6533 184° South 292 336 4,900 -1,560 Descending Houston Center
19:02 26.4833 -97.6567 183° South 286 329 3,900 -1,320 Descending Houston Center
19:03 26.4606 -97.6569 181° South 287 330 3,600 -1,620 Descending Houston Center
19:03 26.4114 -97.6567 180° South 272 313 2,300 -1,020 Descending Houston Center
19:04 26.3503 -97.6578 181° South 213 245 1,900 -600 Descending Houston Center
19:05 26.2975 -97.6581 180° South 179 206 1,100 -780 Descending Houston Center
19:06 26.2547 -97.6589 181° South 147 169 400 11,040 Descending Houston Center
19:07 26.2156 -97.6592 180° South 144 166 24,000 22,800 Climbing Houston Center
19:09 26.2167 -97.6500 180° South  Level FlightAware Approximate